This demonstration page uses our WeatherBlox Daily Observations layout. Learn more.

Left ArrowRight Arrow

39.92423, -83.80882

Hourly Observations for May 28, 2018

Temp ( °F °C ) Dew Point ( °F °C ) Humidity (%) Winds ( mph kmh ) Pressure ( in mb ) Visibility ( mi km ) Precip ( " mm )
12:56 am 00:56 Clear 72 22.2 67 19.4 84 84 SW 6 9 29.95 1014 10 16.0934 0 0
1:56 am 01:56 Clear 70 21.1 67 19.4 90 90 Calm 29.96 1014 10 16.0934 0 0
2:56 am 02:56 Clear 68 20 66 18.9 93 93 Calm 29.96 1015 9 14.48406 0 0
3:56 am 03:56 Clear 68 20 67 19.4 96 96 SE 3 6 29.95 1014 9 14.48406 0 0
4:56 am 04:56 Clear with Mist and Fog 66 18.9 65 18.3 96 96 Calm 29.94 1014 4 6.43736 0 0
5:56 am 05:56 Clear with Mist and Fog 65 18.3 65 18.3 100 100 Calm 29.94 1014 3 4.82802 0 0
6:03 am 06:03 Clear with Mist and Fog 64 18 64 18 100 100 Calm 29.94 1014 2.5 4.02335 0 0
6:23 am 06:23 Sunny with Mist and Fog 64 18 64 18 100 100 Calm 29.94 1014 4 6.43736 0 0
6:56 am 06:56 Sunny with Mist and Fog 66 18.9 66 18.9 100 100 Calm 29.97 1015 4 6.43736 0 0
7:56 am 07:56 Sunny 72 22.2 69 20.6 91 91 Calm 29.98 1015 7 11.26538 0 0
8:56 am 08:56 Sunny 77 25 70 21.1 79 79 Calm 29.98 1015 10 16.0934 0 0
9:56 am 09:56 Sunny 81 27.2 70 21.1 69 69 NNE 5 7 29.98 1015 10 16.0934 0 0
10:56 am 10:56 Sunny 83 28.3 70 21.1 65 65 ENE 7 11 29.98 1015 10 16.0934 0 0
11:56 am 11:56 Sunny 85 29.4 68 20 57 57 VRB 3 6 29.98 1015 10 16.0934 0 0
12:56 pm 12:56 Mostly Sunny 88 31.1 69 20.6 54 54 E 6 9 29.98 1015 10 16.0934 0 0
1:56 pm 13:56 Sunny 88 31.1 66 18.9 48 48 ESE 8 13 29.97 1015 10 16.0934 0 0
2:56 pm 14:56 Sunny 89 31.7 64 17.8 43 43 E 9 15 29.96 1014 10 16.0934 0 0
3:56 pm 15:56 Partly Cloudy 90 32.2 65 18.3 44 44 ESE 14 22 29.94 1014 10 16.0934 0 0
4:56 pm 16:56 Sunny 89 31.7 64 17.8 43 43 ESE 10 17 29.92 1013 10 16.0934 0 0
5:56 pm 17:56 Sunny 87 30.6 63 17.2 45 45 E 9 15 29.91 1013 10 16.0934 0 0
6:56 pm 18:56 Sunny 86 30 62 16.7 45 45 ESE 9 15 29.91 1013 10 16.0934 0 0
7:56 pm 19:56 Sunny 84 28.9 65 18.3 53 53 SE 8 13 29.92 1013 10 16.0934 0 0
8:56 pm 20:56 Clear 80 26.7 65 18.3 60 60 ESE 6 9 29.93 1014 10 16.0934 0 0
9:56 pm 21:56 Clear 77 25 66 18.9 69 69 SE 7 11 29.93 1014 9 14.48406 0 0
10:56 pm 22:56 Clear 75 23.9 67 19.4 76 76 SE 7 11 29.95 1014 10 16.0934 0 0
11:56 pm 23:56 Clear 75 23.9 68 20 79 79 SSW 5 7 29.95 1014 10 16.0934 0 0

Powered by AerisWeather